Weather History for Walnut Ridge, AR

Change the Weather History Date:

Tuesday, August 6, 2013

  Actual Average Record
Temperature  
Mean Temperature 76 °F -  
Max Temperature 80 °F 85 °F 102 °F (2011)
Min Temperature 71 °F 67 °F 59 °F (1997)
Cooling Degree Days 10    
Growing Degree Days 26 (Base 50)    
Moisture  
Dew Point 73 °F    
Average Humidity 94    
Maximum Humidity 100    
Minimum Humidity 83    
Precipitation  
Precipitation 0.39 in - - ()
Sea Level Pressure  
Sea Level Pressure 29.91 in    
Wind  
Wind Speed 6 mph (East)    
Max Wind Speed 14 mph    
Max Gust Speed 16 mph    
Visibility 7 miles    
Events Thunderstorm    
Averages and records for this station are not official NWS values.
T = Trace of Precipitation, MM = Missing Value Source: NWS Daily Summary

Daily Weather History Graph

Daily Weather History Graph

Search for Another Location

Airport:

Trip Planner

Search our weather history database for the weather conditions in past years. The results will help you decide how hot, cold, wet, or windy it might be!

Date:

Astronomy

Aug. 06, 2013 Rise Set
Actual Time 6:14 AM CDT 8:03 PM CDT
Civil Twilight 5:47 AM CDT 8:31 PM CDT
Nautical Twilight 5:13 AM CDT 9:05 PM CDT
Astronomical Twilight 4:37 AM CDT 9:40 PM CDT
Moon 6:04 AM CDT (8/6) 7:41 PM CDT (8/6)
Length of Visible Light 14h 44m
Length of Day
13h 48m
Waning Crescent, 0% of the Moon is Illuminated
Aug 6
Waning Crescent
Aug 6
New
Aug 14
First Quarter
Aug 20
Full
Aug 28
Last Quarter

Hourly Weather History & Observations

Time (CDT) Temp. Heat Index Dew Point Humidity Pressure Visibility Wind Dir Wind Speed Gust Speed Precip Events Conditions
12:15 AM 78.8 °F - 77.0 °F 94% 29.90 in 3.0 mi ENE 6.9 mph - N/A   Overcast
12:35 AM 77.0 °F - 77.0 °F 100% 29.91 in 3.0 mi ENE 4.6 mph - N/A   Overcast
12:55 AM 77.0 °F - 77.0 °F 100% 29.90 in 2.5 mi NNE 5.8 mph - N/A   Partly Cloudy
1:15 AM 77.0 °F - 75.2 °F 94% 29.90 in 3.0 mi NE 4.6 mph - N/A   Scattered Clouds
1:35 AM 77.0 °F - 75.2 °F 94% 29.88 in 2.5 mi East 4.6 mph - N/A   Overcast
1:55 AM 75.2 °F - 73.4 °F 94% 29.86 in 2.0 mi East 4.6 mph - N/A   Overcast
2:15 AM 75.2 °F - 73.4 °F 94% 29.86 in 2.0 mi ESE 6.9 mph - N/A   Scattered Clouds
2:35 AM 75.2 °F - 75.2 °F 100% 29.87 in 2.5 mi East 5.8 mph - N/A   Clear
2:55 AM 75.2 °F - 75.2 °F 100% 29.87 in 2.0 mi ESE 5.8 mph - N/A   Clear
3:15 AM 75.2 °F - 75.2 °F 100% 29.88 in 3.0 mi ESE 3.5 mph - N/A   Scattered Clouds
3:35 AM 75.2 °F - 75.2 °F 100% 29.88 in 2.5 mi ESE 4.6 mph - N/A   Scattered Clouds
3:55 AM 75.2 °F - 73.4 °F 94% 29.88 in 2.5 mi South 4.6 mph - N/A   Clear
4:15 AM 75.2 °F - 73.4 °F 94% 29.89 in 3.0 mi ESE 3.5 mph - N/A   Mostly Cloudy
4:35 AM 75.2 °F - 73.4 °F 94% 29.88 in 4.0 mi Calm Calm - N/A   Partly Cloudy
4:55 AM 73.4 °F - 71.6 °F 94% 29.87 in 3.0 mi SSE 3.5 mph - N/A   Clear
5:15 AM 73.4 °F - 73.4 °F 100% 29.87 in 3.0 mi South 5.8 mph - N/A   Clear
5:35 AM 73.4 °F - 71.6 °F 94% 29.88 in 5.0 mi South 6.9 mph - N/A   Scattered Clouds
5:55 AM 73.4 °F - 71.6 °F 94% 29.88 in 5.0 mi South 5.8 mph - N/A   Mostly Cloudy
6:15 AM 73.4 °F - 73.4 °F 100% 29.89 in 6.0 mi SSW 3.5 mph - N/A   Scattered Clouds
6:35 AM 73.4 °F - 73.4 °F 100% 29.89 in 5.0 mi Calm Calm - N/A   Scattered Clouds
6:55 AM 73.4 °F - 71.6 °F 94% 29.92 in 4.0 mi North 9.2 mph - N/A   Mostly Cloudy
7:15 AM 75.2 °F - 73.4 °F 94% 29.94 in 1.8 mi North 9.2 mph - N/A   Overcast
7:35 AM 75.2 °F - 75.2 °F 100% 29.96 in 2.5 mi North 6.9 mph - N/A Thunderstorm Thunderstorm
7:55 AM 75.2 °F - 73.4 °F 94% 29.96 in 5.0 mi North 9.2 mph - N/A Thunderstorm Thunderstorm
8:15 AM 73.4 °F - 73.4 °F 100% 29.97 in 2.0 mi NNE 13.8 mph - N/A Thunderstorm Thunderstorm
8:35 AM 71.6 °F - 71.6 °F 100% 29.98 in 9.0 mi North 10.4 mph 16.1 mph N/A Thunderstorm Thunderstorm
8:55 AM 71.6 °F - 69.8 °F 94% 30.00 in 4.0 mi North 9.2 mph - 0.08 in Thunderstorm Mostly Cloudy
9:15 AM 71.6 °F - 69.8 °F 94% 29.97 in 5.0 mi NE 12.7 mph - 0.11 in   Overcast
9:35 AM 71.6 °F - 69.8 °F 94% 29.96 in 10.0 mi NE 11.5 mph - 0.12 in   Mostly Cloudy
9:55 AM 71.6 °F - 69.8 °F 94% 29.95 in 10.0 mi ENE 9.2 mph - 0.12 in   Mostly Cloudy
10:15 AM 71.6 °F - 69.8 °F 94% 29.95 in 10.0 mi ENE 9.2 mph - N/A   Scattered Clouds
10:35 AM 73.4 °F - 69.8 °F 88% 29.96 in 10.0 mi NE 4.6 mph - N/A   Partly Cloudy
10:55 AM 73.4 °F - 69.8 °F 88% 29.98 in 10.0 mi North 4.6 mph - N/A   Mostly Cloudy
11:15 AM 73.4 °F - 71.6 °F 94% 30.01 in 10.0 mi NW 12.7 mph - 0.02 in Thunderstorm Overcast
11:55 AM 71.6 °F - 71.6 °F 100% 29.97 in 6.0 mi SSE 5.8 mph - 0.17 in   Overcast
12:15 PM 71.6 °F - 71.6 °F 100% 29.95 in 10.0 mi SE 6.9 mph - 0.01 in   Mostly Cloudy
12:35 PM 71.6 °F - 71.6 °F 100% 29.94 in 10.0 mi ESE 8.1 mph - 0.01 in   Mostly Cloudy
12:55 PM 71.6 °F - 71.6 °F 100% 29.93 in 10.0 mi SSE 9.2 mph - 0.01 in   Mostly Cloudy
1:15 PM 71.6 °F - 71.6 °F 100% 29.93 in 10.0 mi South 6.9 mph - 0.01 in   Mostly Cloudy
1:35 PM 73.4 °F - 71.6 °F 94% 29.92 in 10.0 mi SSE 8.1 mph - 0.01 in   Scattered Clouds
1:55 PM 73.4 °F - 71.6 °F 94% 29.93 in 10.0 mi South 8.1 mph - 0.01 in   Clear
2:15 PM 73.4 °F - 71.6 °F 94% 29.92 in 10.0 mi SSW 6.9 mph - N/A   Clear
2:35 PM 73.4 °F - 71.6 °F 94% 29.92 in 10.0 mi SSW 5.8 mph - N/A   Clear
2:55 PM 75.2 °F - 71.6 °F 89% 29.92 in 10.0 mi SW 6.9 mph - N/A   Partly Cloudy
3:15 PM 75.2 °F - 71.6 °F 89% 29.92 in 10.0 mi WSW 4.6 mph - N/A   Partly Cloudy
3:35 PM 75.2 °F - 73.4 °F 94% 29.91 in 10.0 mi WSW 3.5 mph - N/A   Scattered Clouds
3:55 PM 75.2 °F - 73.4 °F 94% 29.91 in 10.0 mi WSW 4.6 mph - N/A   Partly Cloudy
4:15 PM 77.0 °F - 73.4 °F 89% 29.90 in 10.0 mi West 4.6 mph - N/A   Partly Cloudy
4:35 PM 78.8 °F - 73.4 °F 83% 29.88 in 10.0 mi SSW 8.1 mph - N/A   Partly Cloudy
4:55 PM 80.6 °F 86.2 °F 75.2 °F 84% 29.89 in 10.0 mi South 6.9 mph - N/A   Partly Cloudy
5:15 PM 80.6 °F 86.2 °F 75.2 °F 84% 29.88 in 10.0 mi South 6.9 mph - N/A   Partly Cloudy
5:35 PM 80.6 °F 86.2 °F 75.2 °F 84% 29.90 in 10.0 mi Calm Calm - N/A   Scattered Clouds
5:55 PM 80.6 °F 86.2 °F 75.2 °F 84% 29.90 in 10.0 mi East 5.8 mph - N/A   Overcast
6:15 PM 78.8 °F - 75.2 °F 89% 29.90 in 10.0 mi East 8.1 mph - N/A   Mostly Cloudy
6:35 PM 78.8 °F - 75.2 °F 89% 29.90 in 10.0 mi ENE 6.9 mph - N/A   Scattered Clouds
6:55 PM 78.8 °F - 75.2 °F 89% 29.89 in 10.0 mi East 5.8 mph - N/A   Scattered Clouds
7:15 PM 78.8 °F - 75.2 °F 89% 29.88 in 10.0 mi East 6.9 mph - N/A   Partly Cloudy
7:35 PM 78.8 °F - 75.2 °F 89% 29.89 in 10.0 mi ENE 8.1 mph - N/A   Partly Cloudy
7:55 PM 77.0 °F - 75.2 °F 94% 29.89 in 10.0 mi East 4.6 mph - N/A   Mostly Cloudy
8:15 PM 77.0 °F - 75.2 °F 94% 29.88 in 10.0 mi ENE 8.1 mph - N/A   Mostly Cloudy
8:35 PM 75.2 °F - 75.2 °F 100% 29.88 in 10.0 mi ENE 6.9 mph - N/A   Mostly Cloudy
8:55 PM 75.2 °F - 75.2 °F 100% 29.88 in 10.0 mi ENE 5.8 mph - N/A   Partly Cloudy
9:15 PM 75.2 °F - 75.2 °F 100% 29.89 in 10.0 mi East 5.8 mph - N/A   Clear
9:35 PM 75.2 °F - 75.2 °F 100% 29.89 in 10.0 mi East 5.8 mph - N/A   Clear
9:55 PM 75.2 °F - 73.4 °F 94% 29.89 in 10.0 mi East 4.6 mph - N/A   Clear
10:15 PM 75.2 °F - 73.4 °F 94% 29.90 in 10.0 mi East 4.6 mph - N/A   Clear
10:35 PM 75.2 °F - 73.4 °F 94% 29.90 in 10.0 mi ENE 3.5 mph - N/A   Clear
10:55 PM 75.2 °F - 73.4 °F 94% 29.89 in 9.0 mi East 5.8 mph - N/A   Partly Cloudy
11:15 PM 75.2 °F - 73.4 °F 94% 29.90 in 10.0 mi East 3.5 mph - N/A   Partly Cloudy
11:35 PM 75.2 °F - 73.4 °F 94% 29.90 in 10.0 mi ESE 4.6 mph - N/A   Scattered Clouds
11:55 PM 75.2 °F - 73.4 °F 94% 29.90 in 10.0 mi East 4.6 mph - N/A   Scattered Clouds